Location: C�mpuri de-Sus
(45.9500°N, 22.5500°E)
Time: 04:40:49
(UTC+00:00)

Okean-O - Pass Details

Date: 24 October 2021
Orbit: 638 x 640 km, 98.2° (Epoch: 30 November)

Event Time Altitude Azimuth Distance (km) Brightness Sun altitude
Exits shadow 16:25:12 14° 89° (E) 1,770 4.2 -10.5°
Maximum altitude 16:26:57 17° 61° (ENE) 1,601 4.1 -10.8°
Drops below altitude 10° 16:29:51 10° 20° (NNE) 2,042 5.0 -11.3°
Sets 16:32:41 0° 2° (N) 2,957 6.0 -11.8°
